Location: Marne
(34.0056°N, 117.9064°W)
Time: 04:21:12
(UTC+00:00)

Daily predictions for brighter satellites

Satellite Brightness Start Highest point End
(mag) Time Altitude Azimuth Time Altitude Azimuth Time Altitude Azimuth
Cosmos 2154 Rocket 4.4 01:23:22 10° SSE 01:29:17 44° E 01:35:11 10° NNE
Starlink E 4.2 01:28:12 10° WSW 01:30:47 30° NW 01:33:23 10° NNE
Cosmos 1726 3.2 01:27:20 10° NNW 01:30:50 48° W 01:34:21 10° SSW
Cosmos 2333 Rocket 3.0 01:26:29 10° N 01:31:24 29° ENE 01:36:15 10° ESE
Starlink J 4.3 01:29:21 10° WSW 01:31:56 29° NW 01:34:31 10° NNE
Starlink V 4.3 01:30:30 10° WSW 01:33:03 28° NW 01:35:37 10° NNE
Starlink AR 4.4 01:31:35 10° W 01:33:38 22° NW 01:35:42 10° NNE
Cosmos 2058 Rocket 3.0 01:29:45 10° N 01:34:07 83° E 01:38:29 10° S
Starlink H 4.4 01:31:41 10° WSW 01:34:13 27° NW 01:36:46 10° NNE
Cosmos 2322 Rocket 3.8 01:29:31 10° NW 01:34:49 40° WSW 01:40:05 10° S
Cosmos 1125 Rocket 3.8 01:30:13 10° S 01:35:11 48° ESE 01:40:10 10° NNE
Starlink F 4.4 01:32:51 10° W 01:35:22 27° NW 01:37:54 10° NNE
Starlink G 4.5 01:34:02 10° W 01:36:32 26° NW 01:39:03 10° NNE
Cosmos 2237 Rocket 3.9 01:35:46 10° NE 01:37:10 11° NE 01:38:33 10° ENE
Haruka 4.1 01:35:18 10° SSW 01:38:08 22° SSE 01:41:04 10° ESE
H-2A R/B 3.5 01:35:19 10° S 01:39:01 59° W 01:42:49 10° NNW
Cosmos 1602 Rocket 3.8 01:36:55 10° SSE 01:41:09 47° E 01:45:23 10° NNE
Okean-O 2.7 01:37:37 10° SSE 01:41:56 56° ENE 01:46:16 10° N
Cosmos 1626 2.2 01:39:26 10° S 01:43:02 55° E 01:46:40 10° NNE
Cosmos 1610 Rocket 4.4 01:41:24 10° S 01:47:29 70° E 01:53:34 10° NNE
Envisat 3.0 01:44:42 10° SSE 01:49:46 82° ENE 01:54:52 10° N
CZ-4C R/B 3.7 01:44:25 10° N 01:50:46 29° NE 01:57:44 10° ESE
SMAP 4.2 01:47:45 10° S 01:52:15 49° W 01:56:45 10° NNW
YAOGAN 6 2.6 01:48:51 10° SSE 01:52:29 59° ENE 01:56:08 10° N
Cosmos 2219 3.7 01:48:24 10° S 01:53:32 39° ESE 01:58:43 10° NE
COSMO-SKYMED 1 2.5 01:49:31 10° NNE 01:53:52 79° ESE 01:58:11 10° S
ISS -1.4 01:54:15 10° SE 01:54:25 10° SE 01:54:36 10° ESE
CSL-04 Rocket 4.3 01:49:43 10° SE 01:54:29 32° ENE 01:59:18 10° N
ASTRO E2 3.4 01:51:19 10° W 01:55:10 49° S 01:59:01 10° ESE
Cosmos 1758 Rocket 4.4 01:53:58 10° SSE 01:57:40 29° E 02:01:22 10° NNE
Cosmos 1242 Rocket 3.1 01:57:48 10° SSW 02:01:13 58° W 02:04:40 10° N
Cosmos 1048 Rocket 4.1 01:57:50 10° N 02:02:48 47° ENE 02:07:42 10° SE
Cosmos 1626 Rocket 4.0 02:00:48 10° SSW 02:05:07 64° W 02:09:25 10° N
Cosmos 2333 4.2 02:00:11 10° NNW 02:05:55 83° ENE 02:11:34 10° SSE
ATLAS 5 CENTAUR R/B 4.3 02:04:36 10° WNW 02:05:56 11° NW 02:07:19 10° NNW
Cosmos 2322 3.8 02:02:09 10° NNW 02:07:49 82° WSW 02:13:27 10° SSE
USA 234 4.1 02:02:41 10° SSE 02:09:00 52° SW 02:15:22 10° NW
Cosmos 962 Rocket 4.5 02:03:57 10° S 02:09:55 60° E 02:15:56 10° NNE
Cosmos 468 4.4 02:05:22 10° N 02:10:34 66° ENE 02:15:45 10° SSE
Cosmos 2297 Rocket 2.6 02:08:05 10° S 02:13:17 39° ESE 02:17:22 16° NE
Cosmos 1461 3.4 02:10:33 10° NNW 02:14:43 41° ENE 02:19:00 10° SE
Cosmos 2084 Rocket 3.9 02:12:23 10° NW 02:16:48 66° WSW 02:21:09 10° SSE
ERBS 2.7 02:13:46 10° SSW 02:16:57 44° SE 02:18:04 31° ENE
Atlas Centaur 2 4.0 02:16:07 10° S 02:19:31 16° SE 02:22:19 13° ESE
Nadezhda 3 Rocket 4.0 02:14:41 10° N 02:20:59 87° E 02:27:20 10° S
CZ-2D R/B 3.5 02:20:38 10° SSE 02:24:14 43° ENE 02:27:53 10° N
Cosmos 1825 Rocket 3.6 02:20:25 10° S 02:24:41 54° E 02:28:35 12° NNE
Cosmos 2227 Rocket 2.5 02:19:32 10° S 02:24:53 45° ESE 02:28:22 21° NE
Cosmos 724 4.3 02:19:12 10° SSW 02:25:12 76° ESE 02:30:04 16° NNE
Cosmos 2360 Rocket 4.3 02:20:57 10° NW 02:25:45 29° WSW 02:30:31 10° SSW
NOAA 11 4.2 02:21:10 10° SSE 02:26:34 61° ENE 02:31:59 10° N
COSMOS 2428 2.6 02:21:02 10° NNW 02:26:48 80° ENE 02:32:31 10° SSE
Cosmos 2341 Rocket 4.0 02:22:22 10° S 02:28:44 80° E 02:35:08 10° N
Ariane Rocket 3.8 02:33:53 29° NE 02:33:53 29° NE 02:37:39 10° N
Cosmos 1340 Rocket 2.7 02:31:17 10° N 02:35:14 84° W 02:39:12 10° S
Cosmos 2219 Rocket 2.2 02:29:44 10° NNW 02:35:26 83° WSW 02:41:05 10° SSE
Shenzhou-11 Module 3.5 02:33:49 10° SSW 02:35:24 23° S 02:35:24 23° S
Cosmos 1939 Rocket 2.6 02:34:35 10° SSE 02:38:25 69° ENE 02:42:18 10° N
SL-8 Rocket 3.9 02:34:24 10° S 02:40:40 71° E 02:46:57 10° N
DELTA 2 R/B (1) 3.6 02:37:40 10° WSW 02:43:16 73° NNW 02:45:28 38° ENE
H-2A ROCKET BODY 2.3 02:35:39 10° W 02:43:36 42° SSW 02:44:49 30° SE
USA 32 4.5 02:41:07 10° SSW 02:46:16 63° W 02:51:27 10° N
Cosmos 494 Rocket 3.8 02:42:40 10° NNW 02:47:46 70° ENE 02:52:51 10° SSE
Centaur D-1A AC-35 4.1 02:49:19 10° WSW 02:53:49 48° SSE 03:00:41 25° ESE
NOSS 0 Rocket 3.8 02:49:53 10° NNW 02:56:08 79° ENE 03:02:17 10° SSE
YAOGAN 1 3.6 02:53:57 10° S 02:58:05 46° W 03:02:15 10° NNW
CZ-4 R/B 3.3 02:56:56 10° SSW 03:00:25 29° W 03:03:58 10° NW
SL-08 R/B 4.5 02:55:54 10° SSE 03:01:55 55° E 03:03:29 44° NE
H-2A R/B 3.6 02:59:51 10° SW 03:02:23 22° S 03:05:29 16° SE
Cosmos 2218 Rocket 4.0 02:59:52 10° S 03:06:08 86° W 03:12:32 10° N
Cosmos 2333 Rocket 3.9 03:10:34 10° NW 03:15:36 33° WSW 03:20:34 10° SSW
ADEOS Rocket 3.4 03:10:14 10° N 03:16:45 74° WNW 03:23:59 10° SSW
Cosmos 44 3.7 03:12:30 10° SSW 03:16:05 51° SSW 03:16:05 51° SSW
Cosmos 2237 Rocket 2.0 03:16:21 10° NNW 03:21:55 86° NNE 03:21:55 86° NNE
Cosmos 1339 Rocket 4.5 03:18:59 10° N 03:25:04 78° W 03:31:10 10° S
Cosmos 1241 Rocket 4.3 03:20:25 10° NNW 03:26:39 90° ENE 03:27:19 73° SSE
ISS -0.9 03:27:28 10° WSW 03:28:19 17° WSW 03:28:19 17° WSW
Meteor 2-10 Rocket 4.5 03:27:03 10° NNW 03:38:32 - S 03:30:24 38° NNW
CZ-4C R/B 3.3 03:32:15 10° NW 03:39:50 66° WSW 03:48:10 10° SSE
Cosmos 2082 4.1 03:37:23 10° SSW 03:42:27 58° W 03:42:27 58° W
Cosmos 2297 Rocket 4.1 03:52:52 10° WSW 03:57:23 24° WNW 03:59:15 21° NNW
Centaur D AC-28 3.6 03:47:53 10° WSW 04:02:53 46° S 04:02:53 46° S
Atlas Centaur 2 3.9 04:02:01 10° SW 04:04:55 28° SSW 04:04:55 28° SSW
Cosmos 2227 Rocket 4.2 04:04:51 10° WSW 04:09:06 22° WNW 04:10:15 20° NW
